Tracking 19250 objects as of 24-Sep-2018
HD Live streaming from Space Station
objects crossing your sky now

FENGYUN 1C DEB

Track FENGYUN 1C DEB now!
10-day predictions


NORAD ID: 33632
Int'l Code: 1999-025DDR
Perigee: 697.8 km
Apogee: 772.0 km
Inclination: 99.0 °
Period: 99.4 minutes
Semi major axis: 7105 km
RCS: 0.0035 m2 (small)
Launch date: May 10, 1999
Source: People's Republic of China (PRC)
Launch site: Taiyaun Space Center, China (TSC)

Note: This is SATELLITE DEBRIS
aabbcc
Your satellite tracking list
Your tracking list is empty




NASA's NSSDC Master Catalog

Two Line Element Set (TLE):
1 33632U 99025DDR 18265.66305833 +.00001507 +00000-0 +40128-3 0  9999
2 33632 099.0413 159.2289 0052228 130.1700 230.4082 14.49349284548040
Source of the keplerian elements: AFSPC